Regional Weather Roundup
Issued by NWS

Home | Current Version | Previous Version | Text Only | Print | Product List | Glossary Off
Versions: 1 2 3 4 5 6 7 8 9 10 11 12 13 14 15 16 17 18 19 20 21 22 23 24 25 26 27 28 29 30 31 32 33 34 35 36 37 38 39 40 41 42 43 44 45 46 47 48 49 50

000
ASUS43 KLMK 192302
RWRKY
KENTUCKY REGIONAL WEATHER ROUNDUP
NATIONAL WEATHER SERVICE LOUISVILLE KY
700 PM EDT SAT APR 19 2014

NOTE "FAIR" INDICATES FEW OR NO CLOUDS BELOW 12,000 FEET
WITH NO SIGNIFICANT WEATHER AND/OR OBSTRUCTIONS TO VISIBILITY.

KYZ001>023-026-027-061>063-070>075-200000-
WESTERN AND SOUTH CENTRAL KENTUCKY

CITY           SKY/WX    TMP DP  RH WIND       PRES   REMARKS
PADUCAH        SUNNY     76  41  28 NE8       30.15S
HENDERSON      SUNNY     72  41  33 NE5       30.17S
OWENSBORO      SUNNY     74  36  25 NE9       30.18S
HOPKINSVILLE   SUNNY     75  36  23 E9        30.15S
BOWLING GREEN  SUNNY     73  37  27 E10       30.16R
GLASGOW        NOT AVBL
$$

KYZ024-025-028>034-038-045-046-053-200000-
NORTH CENTRAL KENTUCKY

CITY           SKY/WX    TMP DP  RH WIND       PRES   REMARKS
LOUISVILLE/SDF MOSUNNY   73  37  27 E12       30.19F
LOUISVILLE/LOU SUNNY     74  36  25 NE9       30.20S
FORT KNOX      SUNNY     71  37  27 NE10      30.18S
$$

KYZ035>037-039>044-047>052-055>060-089>105-200000-
NORTHEAST KENTUCKY

CITY           SKY/WX    TMP DP  RH WIND       PRES   REMARKS
LEXINGTON      SUNNY     70  38  31 NE12      30.19S
COVINGTON      MOSUNNY   67  31  26 NE12      30.23F
FRANKFORT      SUNNY     70  32  24 N8        30.19S
$$

KYZ054-064>069-076>088-106>120-200000-
SOUTHEAST KENTUCKY

CITY           SKY/WX    TMP DP  RH WIND       PRES   REMARKS
JACKSON        PTSUNNY   70  32  24 VRB6      30.17R
LONDON         MOSUNNY   73  35  25 N7        30.15R
SOMERSET       NOT AVBL
MIDDLESBORO    NOT AVBL
MONTICELLO     CLEAR     73  40  30 NE10      30.16R
$$




USA.gov is the U.S. government's official web portal to all federal, state and local government web resources and services.